START_TIME,STEP,MOV.,M29,t_acc.,H22,t_acc.,H26,t_acc.,H30,t_acc.
1989-08-26T15:00:32.550 ,1,0,0.,24.0,0.,24.0,0.,24.0,0.,24.0
1989-08-26T15:00:56.550 ,0,1,0.,24.0,0.,24.0,0.,24.0,0.,24.0
1989-08-26T15:01:20.550 ,0,0,0.,24.0,0.,24.0,0.,24.0,0.,24.0
1989-08-26T15:01:44.550 ,0,1,0.,24.0,0.,24.0,0.,24.0,0.,24.0
1989-08-26T15:02:08.550 ,0,0,0.,24.0,0.,24.0,0.,24.0,0.,24.0
1989-08-26T15:02:32.550 ,1,1,0.,24.0,0.,24.0,0.,24.0,0.,24.0
1989-08-26T15:02:56.550 ,1,0,0.,24.0,0.,24.0,0.,24.0,0.,24.0
1989-08-26T15:03:20.550 ,2,1,0.,24.0,0.,24.0,0.,24.0,0.,24.0
1989-08-26T15:03:44.550 ,2,0,0.,24.0,0.,24.0,0.,24.0,0.,24.0
1989-08-26T15:04:08.550 ,3,1,0.,24.0,0.,24.0,0.,24.0,0.,24.0
1989-08-26T15:04:32.550 ,3,0,0.,24.0,0.,24.0,0.,24.0,0.,24.0
1989-08-26T15:04:56.550 ,4,1,0.,24.0,0.,24.0,0.,24.0,0.,24.0
1989-08-26T15:05:20.550 ,4,0,0.,24.0,0.,24.0,0.,24.0,0.,24.0
1989-08-26T15:05:44.550 ,5,1,0.,24.0,0.,24.0,0.,24.0,0.,24.0
1989-08-26T15:06:08.550 ,5,1,,0,,0,,0,,0
1989-08-26T15:06:47.550 ,0,0,,0,,0,,0,,0
1989-08-26T15:06:56.550 ,0,0,0.,24.0,0.,24.0,0.,24.0,0.,24.0
1989-08-26T15:07:20.550 ,7,1,0.,24.0,0.,24.0,0.,24.0,0.,24.0
1989-08-26T15:07:44.550 ,7,0,0.,24.0,0.,24.0,0.,24.0,0.,24.0
1989-08-26T15:08:08.550 ,7,1,0.,24.0,0.,24.0,0.,24.0,0.,24.0
1989-08-26T15:08:32.550 ,7,0,0.,24.0,0.,24.0,0.,24.0,0.,24.0
1989-08-26T15:08:56.550 ,6,1,0.,24.0,0.,24.0,0.,24.0,0.,24.0
1989-08-26T15:09:20.550 ,6,0,0.,24.0,0.,24.0,0.,24.0,0.,24.0
1989-08-26T15:09:44.550 ,5,1,0.,24.0,0.,24.0,0.,24.0,0.,24.0
1989-08-26T15:10:08.550 ,5,0,0.,24.0,0.,24.0,0.,24.0,0.,24.0
1989-08-26T15:10:32.550 ,4,1,0.,24.0,0.,24.0,0.,24.0,0.,24.0
1989-08-26T15:10:56.550 ,4,0,0.,24.0,0.,24.0,0.,24.0,0.,24.0
1989-08-26T15:11:20.550 ,3,1,0.,24.0,0.,24.0,0.,24.0,0.,24.0
1989-08-26T15:11:44.550 ,3,0,0.,24.0,0.,24.0,0.,24.0,0.,24.0
1989-08-26T15:12:08.550 ,2,1,0.,24.0,0.,24.0,0.,24.0,0.,24.0
1989-08-26T15:12:32.550 ,2,0,0.,24.0,0.,24.0,0.,24.0,0.,24.0
1989-08-26T15:12:56.550 ,1,1,0.,24.0,0.,24.0,0.,24.0,0.,24.0
1989-08-26T15:13:20.550 ,1,0,0.,24.0,0.,24.0,0.,24.0,0.,24.0
1989-08-26T15:13:44.550 ,0,1,0.,24.0,0.,24.0,0.,24.0,0.,24.0
1989-08-26T15:14:08.550 ,0,0,0.,24.0,0.,24.0,0.,24.0,0.,24.0
1989-08-26T15:14:32.550 ,0,1,0.,24.0,0.,24.0,0.,24.0,0.,24.0
1989-08-26T15:14:56.550 ,0,0,0.,24.0,0.,24.0,0.,24.0,0.,24.0
1989-08-26T15:15:20.550 ,1,1,0.,24.0,0.,24.0,0.,24.0,0.,24.0
1989-08-26T15:15:44.550 ,1,0,0.,24.0,0.,24.0,0.,24.0,0.,24.0
1989-08-26T15:16:08.550 ,2,1,0.,24.0,0.,24.0,0.,24.0,0.,24.0
1989-08-26T15:16:32.550 ,2,0,0.,24.0,0.,24.0,0.,24.0,0.,24.0
1989-08-26T15:16:56.550 ,3,1,0.,24.0,0.,24.0,0.,24.0,0.,24.0
1989-08-26T15:17:20.550 ,3,0,0.,24.0,0.,24.0,0.,24.0,0.,24.0
1989-08-26T15:17:44.550 ,4,1,0.,24.0,0.,24.0,0.,24.0,0.,24.0
1989-08-26T15:18:08.550 ,4,0,0.,24.0,0.,24.0,0.,24.0,0.,24.0
1989-08-26T15:18:32.550 ,5,1,0.,24.0,0.,24.0,0.,24.0,0.,24.0
1989-08-26T15:18:56.550 ,5,0,0.,24.0,0.,24.0,0.,24.0,0.,24.0
1989-08-26T15:19:20.550 ,6,1,0.,24.0,0.,24.0,0.,24.0,0.,24.0
1989-08-26T15:19:44.550 ,6,0,0.,24.0,0.,24.0,0.,24.0,0.,24.0
1989-08-26T15:20:08.550 ,7,1,0.,24.0,0.,24.0,0.,24.0,0.,24.0
1989-08-26T15:20:32.550 ,7,0,0.,24.0,0.,24.0,0.,24.0,0.,24.0
1989-08-26T15:20:56.550 ,7,1,0.,24.0,0.,24.0,0.,24.0,0.,24.0
1989-08-26T15:21:20.550 ,7,0,0.,24.0,0.,24.0,0.,24.0,0.,24.0
1989-08-26T15:21:44.550 ,6,1,0.,24.0,0.,24.0,0.,24.0,0.,24.0
1989-08-26T15:22:08.550 ,6,0,0.,24.0,0.,24.0,0.,24.0,0.,24.0
1989-08-26T15:22:32.550 ,5,1,0.,24.0,0.,24.0,0.,24.0,0.,24.0
1989-08-26T15:22:56.550 ,5,0,0.,24.0,0.,24.0,0.,24.0,0.,24.0
1989-08-26T15:23:20.550 ,4,1,0.,24.0,0.,24.0,0.,24.0,0.,24.0
1989-08-26T15:23:44.550 ,4,0,0.,24.0,0.,24.0,0.,24.0,0.,24.0
1989-08-26T15:24:08.550 ,3,1,0.,24.0,0.,24.0,0.,24.0,0.,24.0
1989-08-26T15:24:32.550 ,3,0,0.,24.0,0.,24.0,0.,24.0,0.,24.0
1989-08-26T15:24:56.550 ,2,1,0.,24.0,0.,24.0,0.,24.0,0.,24.0
1989-08-26T15:25:20.550 ,2,0,0.,24.0,0.,24.0,0.,24.0,0.,24.0
1989-08-26T15:25:44.550 ,1,1,0.,24.0,0.,24.0,0.,24.0,0.,24.0
1989-08-26T15:26:08.550 ,1,0,0.,24.0,0.,24.0,0.,24.0,0.,24.0
1989-08-26T15:26:32.550 ,0,1,0.,24.0,0.,24.0,0.,24.0,0.,24.0
1989-08-26T15:26:56.550 ,0,0,0.,24.0,0.,24.0,0.,24.0,0.,24.0
1989-08-26T15:27:20.550 ,0,1,0.,24.0,0.,24.0,0.,24.0,0.,24.0
1989-08-26T15:27:44.550 ,0,0,0.,24.0,0.,24.0,0.,24.0,0.,24.0
1989-08-26T15:28:08.550 ,1,1,0.,24.0,0.,24.0,0.,24.0,0.,24.0
1989-08-26T15:28:32.550 ,1,0,0.,24.0,0.,24.0,0.,24.0,0.,24.0
1989-08-26T15:28:56.550 ,2,1,0.,24.0,0.,24.0,0.,24.0,0.,24.0
1989-08-26T15:29:20.550 ,2,0,0.,24.0,0.,24.0,0.,24.0,0.,24.0
1989-08-26T15:29:44.550 ,3,1,0.,24.0,0.,24.0,0.,24.0,0.,24.0
1989-08-26T15:30:08.550 ,3,0,0.,24.0,0.,24.0,0.,24.0,0.,24.0
1989-08-26T15:30:32.550 ,4,1,0.,24.0,0.,24.0,0.,24.0,0.,24.0
1989-08-26T15:30:56.550 ,4,0,0.,24.0,0.,24.0,0.,24.0,0.,24.0
1989-08-26T15:31:20.550 ,5,1,0.,24.0,0.,24.0,0.,24.0,0.,24.0
1989-08-26T15:31:44.550 ,5,0,0.,24.0,0.,24.0,0.,24.0,0.,24.0
1989-08-26T15:32:08.550 ,6,1,0.,24.0,0.,24.0,0.,24.0,0.,24.0
1989-08-26T15:32:32.550 ,6,0,0.,24.0,0.,24.0,0.,24.0,0.,24.0
1989-08-26T15:32:56.550 ,7,1,0.,24.0,0.,24.0,0.,24.0,0.,24.0
1989-08-26T15:33:20.550 ,7,0,0.,24.0,0.,24.0,0.,24.0,0.,24.0
1989-08-26T15:33:44.550 ,7,1,0.,24.0,0.,24.0,0.,24.0,0.,24.0
1989-08-26T15:34:08.550 ,7,0,0.,24.0,0.,24.0,0.,24.0,0.,24.0
1989-08-26T15:34:32.550 ,6,1,0.,24.0,0.,24.0,0.,24.0,0.,24.0
1989-08-26T15:34:56.550 ,6,0,0.,24.0,0.,24.0,0.,24.0,0.,24.0
1989-08-26T15:35:20.540 ,5,1,0.,24.0,0.,24.0,0.,24.0,0.,24.0
1989-08-26T15:35:44.540 ,5,0,0.,24.0,0.,24.0,0.,24.0,0.,24.0
1989-08-26T15:36:08.540 ,4,1,0.,24.0,0.,24.0,0.,24.0,0.,24.0
1989-08-26T15:36:32.540 ,4,0,0.,24.0,0.,24.0,0.,24.0,0.,24.0
1989-08-26T15:36:56.540 ,3,1,0.,24.0,0.,24.0,0.,24.0,0.,24.0
1989-08-26T15:37:20.540 ,3,0,0.,24.0,0.,24.0,0.,24.0,0.,24.0
1989-08-26T15:37:44.540 ,2,1,0.,24.0,0.,24.0,0.,24.0,0.,24.0
1989-08-26T15:38:08.540 ,2,0,0.,24.0,0.,24.0,0.,24.0,0.,24.0
1989-08-26T15:38:32.540 ,1,1,0.,24.0,0.,24.0,0.,24.0,0.,24.0
1989-08-26T15:38:56.540 ,1,0,0.,24.0,0.,24.0,0.,24.0,0.,24.0
1989-08-26T15:39:20.540 ,0,1,0.,24.0,0.,24.0,0.,24.0,0.,24.0
1989-08-26T15:39:44.540 ,0,0,0.,24.0,0.,24.0,0.,24.0,0.,24.0
1989-08-26T15:40:08.540 ,0,1,0.,24.0,0.,24.0,0.,24.0,0.,24.0
1989-08-26T15:40:32.540 ,0,0,0.,24.0,0.,24.0,0.,24.0,0.,24.0
1989-08-26T15:40:56.540 ,1,1,0.,24.0,0.,24.0,0.,24.0,0.,24.0
1989-08-26T15:41:20.540 ,1,0,0.,24.0,0.,24.0,0.,24.0,0.,24.0
1989-08-26T15:41:44.540 ,2,1,0.,24.0,0.,24.0,0.,24.0,0.,24.0
1989-08-26T15:42:08.540 ,2,0,0.,24.0,0.,24.0,0.,24.0,0.,24.0
1989-08-26T15:42:32.540 ,3,1,0.,24.0,0.,24.0,0.,24.0,0.,24.0
1989-08-26T15:42:56.540 ,3,0,0.,24.0,0.,24.0,0.,24.0,0.,24.0
1989-08-26T15:43:20.540 ,4,1,0.,24.0,0.,24.0,0.,24.0,0.,24.0
1989-08-26T15:43:44.540 ,4,0,0.,24.0,0.,24.0,0.,24.0,0.,24.0
1989-08-26T15:44:08.540 ,5,1,0.,24.0,0.,24.0,0.,24.0,0.,24.0
1989-08-26T15:44:32.540 ,5,0,0.,24.0,0.,24.0,0.,24.0,0.,24.0
1989-08-26T15:44:56.540 ,6,1,0.,24.0,0.,24.0,0.,24.0,0.,24.0
1989-08-26T15:45:20.540 ,6,0,0.,24.0,0.,24.0,0.,24.0,0.,24.0
1989-08-26T15:45:44.540 ,7,1,0.,24.0,0.,24.0,0.,24.0,0.,24.0
1989-08-26T15:46:08.540 ,7,0,0.,24.0,0.,24.0,0.,24.0,0.,24.0
1989-08-26T15:46:32.540 ,7,1,0.,24.0,0.,24.0,0.,24.0,0.,24.0
1989-08-26T15:46:56.540 ,7,0,0.,24.0,0.,24.0,0.,24.0,0.,24.0
1989-08-26T15:47:20.540 ,6,1,0.,24.0,0.,24.0,0.,24.0,0.,24.0
1989-08-26T15:47:44.540 ,6,0,0.,24.0,0.,24.0,0.,24.0,0.,24.0
1989-08-26T15:48:08.540 ,5,1,0.,24.0,0.,24.0,0.,24.0,0.,24.0
1989-08-26T15:48:32.540 ,5,0,0.,24.0,0.,24.0,0.,24.0,0.,24.0
1989-08-26T15:48:56.540 ,4,1,0.,24.0,0.,24.0,0.,24.0,0.,24.0
1989-08-26T15:49:20.540 ,4,0,0.,24.0,0.,24.0,0.,24.0,0.,24.0
1989-08-26T15:49:44.540 ,3,1,0.,24.0,0.,24.0,0.,24.0,0.,24.0
1989-08-26T15:50:08.540 ,3,0,0.,24.0,0.,24.0,0.,24.0,0.,24.0
1989-08-26T15:50:32.540 ,2,1,0.,24.0,0.,24.0,0.,24.0,0.,24.0
1989-08-26T15:50:56.540 ,2,0,0.,24.0,0.,24.0,0.,24.0,0.,24.0
1989-08-26T15:51:20.540 ,1,1,0.,24.0,0.,24.0,0.,24.0,0.,24.0
1989-08-26T15:51:44.540 ,1,0,0.,24.0,0.,24.0,0.,24.0,0.,24.0
1989-08-26T15:52:08.540 ,0,1,0.,24.0,0.,24.0,0.,24.0,0.,24.0
1989-08-26T15:52:32.540 ,0,0,0.,24.0,0.,24.0,0.,24.0,0.,24.0
1989-08-26T15:52:56.540 ,0,1,0.,24.0,0.,24.0,0.,24.0,0.,24.0
1989-08-26T15:53:20.540 ,0,0,0.,24.0,0.,24.0,0.,24.0,0.,24.0
1989-08-26T15:53:44.540 ,1,1,0.,24.0,0.,24.0,0.,24.0,0.,24.0
1989-08-26T15:54:08.540 ,1,0,0.,24.0,0.,24.0,0.,24.0,0.,24.0
1989-08-26T15:54:32.540 ,2,1,0.,24.0,0.,24.0,0.,24.0,0.,24.0
1989-08-26T15:54:56.540 ,2,0,0.,24.0,0.,24.0,0.,24.0,0.,24.0
1989-08-26T15:55:20.540 ,3,1,0.,24.0,0.,24.0,0.,24.0,0.,24.0
1989-08-26T15:55:44.540 ,3,0,0.,24.0,0.,24.0,0.,24.0,0.,24.0
1989-08-26T15:56:08.540 ,4,1,0.,24.0,0.,24.0,0.,24.0,0.,24.0
1989-08-26T15:56:32.540 ,4,0,0.,24.0,0.,24.0,0.,24.0,0.,24.0
1989-08-26T15:56:56.540 ,5,1,0.,24.0,0.,24.0,0.,24.0,0.,24.0
1989-08-26T15:57:20.540 ,5,0,0.,24.0,0.,24.0,0.,24.0,0.,24.0
1989-08-26T15:57:44.540 ,6,1,0.,24.0,0.,24.0,0.,24.0,0.,24.0
1989-08-26T15:58:08.540 ,6,0,0.,24.0,0.,24.0,0.,24.0,0.,24.0
1989-08-26T15:58:32.540 ,7,1,0.,24.0,0.,24.0,0.,24.0,0.,24.0
1989-08-26T15:58:56.540 ,7,0,0.,24.0,0.,24.0,0.,24.0,0.,24.0
1989-08-26T15:59:20.540 ,7,1,0.,24.0,0.,24.0,0.,24.0,0.,24.0
1989-08-26T15:59:44.540 ,7,0,0.,24.0,0.,24.0,0.,24.0,0.,24.0
1989-08-26T16:00:08.540 ,6,1,0.,24.0,0.,24.0,0.,24.0,0.,24.0
1989-08-26T16:00:32.540 ,6,0,0.,24.0,0.,24.0,0.,24.0,0.,24.0
1989-08-26T16:00:56.540 ,5,1,0.,24.0,0.,24.0,0.,24.0,0.,24.0
1989-08-26T16:01:20.540 ,5,0,0.,24.0,0.,24.0,0.,24.0,0.,24.0
1989-08-26T16:01:44.540 ,4,1,0.,24.0,0.,24.0,0.,24.0,0.,24.0
1989-08-26T16:02:08.540 ,4,0,0.,24.0,0.,24.0,0.,24.0,0.,24.0
1989-08-26T16:02:32.540 ,3,1,0.,24.0,0.,24.0,0.,24.0,0.,24.0
1989-08-26T16:02:56.540 ,3,0,0.,24.0,0.,24.0,0.,24.0,0.,24.0
1989-08-26T16:03:20.540 ,2,1,0.,24.0,0.,24.0,0.,24.0,0.,24.0
1989-08-26T16:03:44.540 ,2,0,0.,24.0,0.,24.0,0.,24.0,0.,24.0
1989-08-26T16:04:08.540 ,1,1,0.,24.0,0.,24.0,0.,24.0,0.,24.0
1989-08-26T16:04:32.540 ,1,0,0.,24.0,0.,24.0,0.,24.0,0.,24.0
1989-08-26T16:04:56.540 ,0,1,0.,24.0,0.,24.0,0.,24.0,0.,24.0
1989-08-26T16:05:20.540 ,0,0,0.,24.0,0.,24.0,0.,24.0,0.,24.0
1989-08-26T16:05:44.540 ,0,1,0.,24.0,0.,24.0,0.,24.0,0.,24.0
1989-08-26T16:06:08.540 ,0,0,0.,24.0,0.,24.0,0.,24.0,0.,24.0
1989-08-26T16:06:32.540 ,1,1,0.,24.0,0.,24.0,0.,24.0,0.,24.0
1989-08-26T16:06:56.540 ,1,0,0.,24.0,0.,24.0,0.,24.0,0.,24.0
1989-08-26T16:07:20.540 ,2,1,0.,24.0,0.,24.0,0.,24.0,0.,24.0
1989-08-26T16:07:44.540 ,2,0,0.,24.0,0.,24.0,0.,24.0,0.,24.0
1989-08-26T16:08:08.540 ,3,1,0.,24.0,0.,24.0,0.,24.0,0.,24.0
1989-08-26T16:08:32.540 ,3,0,0.,24.0,0.,24.0,0.,24.0,0.,24.0
1989-08-26T16:08:56.540 ,4,1,0.,24.0,0.,24.0,0.,24.0,0.,24.0
1989-08-26T16:09:20.540 ,4,0,0.,24.0,0.,24.0,0.,24.0,0.,24.0
1989-08-26T16:09:44.540 ,5,1,0.,24.0,0.,24.0,0.,24.0,0.,24.0
1989-08-26T16:10:08.540 ,5,0,0.,24.0,0.,24.0,0.,24.0,0.,24.0
1989-08-26T16:10:32.540 ,6,1,0.,24.0,0.,24.0,0.,24.0,0.,24.0
1989-08-26T16:10:56.540 ,6,0,0.,24.0,0.,24.0,0.,24.0,0.,24.0
1989-08-26T16:11:20.540 ,7,1,0.,24.0,0.,24.0,0.,24.0,0.,24.0
1989-08-26T16:11:44.540 ,7,0,0.,24.0,0.,24.0,0.,24.0,0.,24.0
1989-08-26T16:12:08.540 ,7,1,0.,24.0,0.,24.0,0.,24.0,0.,24.0
1989-08-26T16:12:32.540 ,7,0,0.,24.0,0.,24.0,0.,24.0,0.,24.0
1989-08-26T16:12:56.540 ,6,1,0.,24.0,0.,24.0,0.,24.0,0.,24.0
1989-08-26T16:13:20.540 ,6,0,0.,24.0,0.,24.0,0.,24.0,0.,24.0
1989-08-26T16:13:44.540 ,5,1,0.,24.0,0.,24.0,0.,24.0,0.,24.0
1989-08-26T16:14:08.540 ,5,0,0.,24.0,0.,24.0,0.,24.0,0.,24.0
1989-08-26T16:14:32.540 ,4,1,0.,24.0,0.,24.0,0.,24.0,0.,24.0
1989-08-26T16:14:56.540 ,4,0,0.,24.0,0.,24.0,0.,24.0,0.,24.0
1989-08-26T16:15:20.540 ,3,1,0.,24.0,0.,24.0,0.,24.0,0.,24.0
1989-08-26T16:15:44.540 ,3,0,0.,24.0,0.,24.0,0.,24.0,0.,24.0
1989-08-26T16:16:08.540 ,2,1,0.,24.0,0.,24.0,0.,24.0,0.,24.0
1989-08-26T16:16:32.540 ,2,0,0.,24.0,0.,24.0,0.,24.0,0.,24.0
1989-08-26T16:16:56.540 ,1,1,0.,24.0,0.,24.0,0.,24.0,0.,24.0
1989-08-26T16:17:20.540 ,1,0,0.,24.0,0.,24.0,0.,24.0,0.,24.0
1989-08-26T16:17:44.540 ,0,1,0.,24.0,0.,24.0,0.,24.0,0.,24.0
1989-08-26T16:18:08.540 ,0,0,0.,24.0,0.,24.0,0.,24.0,0.,24.0
1989-08-26T16:18:32.540 ,0,1,0.,24.0,0.,24.0,0.,24.0,0.,24.0
1989-08-26T16:18:56.540 ,0,0,0.,24.0,0.,24.0,0.,24.0,0.,24.0
1989-08-26T16:19:20.540 ,1,1,0.,24.0,0.,24.0,0.,24.0,0.,24.0
1989-08-26T16:19:44.540 ,1,0,0.,24.0,0.,24.0,0.,24.0,0.,24.0
1989-08-26T16:20:08.540 ,2,1,0.,24.0,0.,24.0,0.,24.0,0.,24.0
1989-08-26T16:20:32.540 ,2,0,0.,24.0,0.,24.0,0.,24.0,0.,24.0
1989-08-26T16:20:56.540 ,3,1,0.,24.0,0.,24.0,0.,24.0,0.,24.0
1989-08-26T16:21:20.540 ,3,0,0.,24.0,0.,24.0,0.,24.0,0.,24.0
1989-08-26T16:21:44.540 ,4,1,0.,24.0,0.,24.0,0.,24.0,0.,24.0
1989-08-26T16:22:08.540 ,4,0,0.,24.0,0.,24.0,0.,24.0,0.,24.0
1989-08-26T16:22:32.540 ,5,1,0.,24.0,0.,24.0,0.,24.0,0.,24.0
1989-08-26T16:22:56.540 ,5,0,0.,24.0,0.,24.0,0.,24.0,0.,24.0
1989-08-26T16:23:20.540 ,6,1,0.,24.0,0.,24.0,0.,24.0,0.,24.0
1989-08-26T16:23:44.540 ,6,0,0.,24.0,0.,24.0,0.,24.0,0.,24.0
1989-08-26T16:24:08.540 ,7,1,0.,24.0,0.,24.0,0.,24.0,0.,24.0
1989-08-26T16:24:32.540 ,7,0,0.,24.0,0.,24.0,0.,24.0,0.,24.0
1989-08-26T16:24:56.540 ,7,1,0.,24.0,0.,24.0,0.,24.0,0.,24.0
1989-08-26T16:25:20.540 ,7,0,0.,24.0,0.,24.0,0.,24.0,0.,24.0
1989-08-26T16:25:44.540 ,6,1,0.,24.0,0.,24.0,0.,24.0,0.,24.0
1989-08-26T16:26:08.540 ,6,0,0.,24.0,0.,24.0,0.,24.0,0.,24.0
1989-08-26T16:26:32.540 ,5,1,0.,24.0,0.,24.0,0.,24.0,0.,24.0
1989-08-26T16:26:56.540 ,5,0,0.,24.0,0.,24.0,0.,24.0,0.,24.0
1989-08-26T16:27:20.540 ,4,1,0.,24.0,0.,24.0,0.,24.0,0.,24.0
1989-08-26T16:27:44.540 ,4,0,0.,24.0,0.,24.0,0.,24.0,0.,24.0
1989-08-26T16:28:08.540 ,3,1,0.,24.0,0.,24.0,0.,24.0,0.,24.0
1989-08-26T16:28:32.540 ,3,0,0.,24.0,0.,24.0,0.,24.0,0.,24.0
1989-08-26T16:28:56.540 ,2,1,0.,24.0,0.,24.0,0.,24.0,0.,24.0
1989-08-26T16:29:20.540 ,2,0,0.,24.0,0.,24.0,0.,24.0,0.,24.0
1989-08-26T16:29:44.540 ,1,1,0.,24.0,0.,24.0,0.,24.0,0.,24.0
1989-08-26T16:30:08.540 ,1,0,0.,24.0,0.,24.0,0.,24.0,0.,24.0
1989-08-26T16:30:32.540 ,0,1,0.,24.0,0.,24.0,0.,24.0,0.,24.0
1989-08-26T16:30:56.540 ,0,0,0.,24.0,0.,24.0,0.,24.0,0.,24.0
1989-08-26T16:31:20.540 ,0,1,0.,24.0,0.,24.0,0.,24.0,0.,24.0
1989-08-26T16:31:44.540 ,0,0,0.,24.0,0.,24.0,0.,24.0,0.,24.0
1989-08-26T16:32:08.540 ,1,1,0.,24.0,0.,24.0,0.,24.0,0.,24.0
1989-08-26T16:32:32.540 ,1,0,0.,24.0,0.,24.0,0.,24.0,0.,24.0
1989-08-26T16:32:56.540 ,2,1,0.,24.0,0.,24.0,0.,24.0,0.,24.0
1989-08-26T16:33:20.540 ,2,0,0.,24.0,0.,24.0,0.,24.0,0.,24.0
1989-08-26T16:33:44.540 ,3,1,0.,24.0,0.,24.0,0.,24.0,0.,24.0
1989-08-26T16:34:08.540 ,3,0,0.,24.0,0.,24.0,0.,24.0,0.,24.0
1989-08-26T16:34:32.540 ,4,1,0.,24.0,0.,24.0,0.,24.0,0.,24.0
1989-08-26T16:34:56.540 ,4,0,0.,24.0,0.,24.0,0.,24.0,0.,24.0
1989-08-26T16:35:20.540 ,5,1,0.,24.0,0.,24.0,0.,24.0,0.,24.0
1989-08-26T16:35:44.540 ,5,0,0.,24.0,0.,24.0,0.,24.0,0.,24.0
1989-08-26T16:36:08.540 ,6,1,0.,24.0,0.,24.0,0.,24.0,0.,24.0
1989-08-26T16:36:32.540 ,6,0,0.,24.0,0.,24.0,0.,24.0,0.,24.0
1989-08-26T16:36:56.540 ,7,1,0.,24.0,0.,24.0,0.,24.0,0.,24.0
1989-08-26T16:37:20.540 ,7,0,0.,24.0,0.,24.0,0.,24.0,0.,24.0
1989-08-26T16:37:44.540 ,7,1,0.,24.0,0.,24.0,0.,24.0,0.,24.0
1989-08-26T16:38:08.540 ,7,0,0.,24.0,0.,24.0,0.,24.0,0.,24.0
1989-08-26T16:38:32.540 ,6,1,0.,24.0,0.,24.0,0.,24.0,0.,24.0
1989-08-26T16:38:56.540 ,6,0,0.,24.0,0.,24.0,0.,24.0,0.,24.0
1989-08-26T16:39:20.540 ,5,1,0.,24.0,0.,24.0,0.,24.0,0.,24.0
1989-08-26T16:39:44.540 ,5,0,0.,24.0,0.,24.0,0.,24.0,0.,24.0
1989-08-26T16:40:08.540 ,4,1,0.,24.0,0.,24.0,0.,24.0,0.,24.0
1989-08-26T16:40:32.540 ,4,0,0.,24.0,0.,24.0,0.,24.0,0.,24.0
1989-08-26T16:40:56.540 ,3,1,0.,24.0,0.,24.0,0.,24.0,0.,24.0
1989-08-26T16:41:20.540 ,3,0,0.,24.0,0.,24.0,0.,24.0,0.,24.0
1989-08-26T16:41:44.540 ,2,1,0.,24.0,0.,24.0,0.,24.0,0.,24.0
1989-08-26T16:42:08.540 ,2,0,0.,24.0,0.,24.0,0.,24.0,0.,24.0
1989-08-26T16:42:32.540 ,1,1,0.,24.0,0.,24.0,0.,24.0,0.,24.0
1989-08-26T16:42:56.540 ,1,0,0.,24.0,0.,24.0,0.,24.0,0.,24.0
1989-08-26T16:43:20.540 ,0,1,0.,24.0,0.,24.0,0.,24.0,0.,24.0
1989-08-26T16:43:44.540 ,0,0,0.,24.0,0.,24.0,0.,24.0,0.,24.0
1989-08-26T16:44:08.540 ,0,1,0.,24.0,0.,24.0,0.,24.0,0.,24.0
1989-08-26T16:44:32.540 ,0,0,0.,24.0,0.,24.0,0.,24.0,0.,24.0
1989-08-26T16:44:56.540 ,1,1,0.,24.0,0.,24.0,0.,24.0,0.,24.0
1989-08-26T16:45:20.540 ,1,0,0.,24.0,0.,24.0,0.,24.0,0.,24.0
1989-08-26T16:45:44.540 ,2,1,0.,24.0,0.,24.0,0.,24.0,0.,24.0
1989-08-26T16:46:08.540 ,2,0,0.,24.0,0.,24.0,0.,24.0,0.,24.0
1989-08-26T16:46:32.540 ,3,1,0.,24.0,0.,24.0,0.,24.0,0.,24.0
1989-08-26T16:46:56.540 ,3,0,0.,24.0,0.,24.0,0.,24.0,0.,24.0
1989-08-26T16:47:20.540 ,4,1,0.,24.0,0.,24.0,0.,24.0,0.,24.0
1989-08-26T16:47:44.540 ,4,0,0.,24.0,0.,24.0,0.,24.0,0.,24.0
1989-08-26T16:48:08.540 ,5,1,0.,24.0,0.,24.0,0.,24.0,0.,24.0
1989-08-26T16:48:32.540 ,5,0,0.,24.0,0.,24.0,0.,24.0,0.,24.0
1989-08-26T16:48:56.540 ,6,1,0.,24.0,0.,24.0,0.,24.0,0.,24.0
1989-08-26T16:49:20.540 ,6,0,0.,24.0,0.,24.0,0.,24.0,0.,24.0
1989-08-26T16:49:44.540 ,7,1,0.,24.0,0.,24.0,0.,24.0,0.,24.0
1989-08-26T16:50:08.540 ,7,0,0.,24.0,0.,24.0,0.,24.0,0.,24.0
1989-08-26T16:50:32.540 ,7,1,0.,24.0,0.,24.0,0.,24.0,0.,24.0
1989-08-26T16:50:56.540 ,7,0,0.,24.0,0.,24.0,0.,24.0,0.,24.0
1989-08-26T16:51:20.540 ,6,1,0.,24.0,0.,24.0,0.,24.0,0.,24.0
1989-08-26T16:51:44.540 ,6,0,0.,24.0,0.,24.0,0.,24.0,0.,24.0
1989-08-26T16:52:08.540 ,5,1,0.,24.0,0.,24.0,0.,24.0,0.,24.0
1989-08-26T16:52:32.540 ,5,0,0.,24.0,0.,24.0,0.,24.0,0.,24.0
1989-08-26T16:52:56.540 ,4,1,0.,24.0,0.,24.0,0.,24.0,0.,24.0
1989-08-26T16:53:20.540 ,4,0,0.,24.0,0.,24.0,0.,24.0,0.,24.0
1989-08-26T16:53:44.540 ,3,1,0.,24.0,0.,24.0,0.,24.0,0.,24.0
1989-08-26T16:54:08.540 ,3,0,0.,24.0,0.,24.0,0.,24.0,0.,24.0
1989-08-26T16:54:32.540 ,2,1,0.,24.0,0.,24.0,0.,24.0,0.,24.0
1989-08-26T16:54:56.540 ,2,0,0.,24.0,0.,24.0,0.,24.0,0.,24.0
1989-08-26T16:55:20.540 ,1,1,0.,24.0,0.,24.0,0.,24.0,0.,24.0
1989-08-26T16:55:44.540 ,1,0,0.,24.0,0.,24.0,0.,24.0,0.,24.0
1989-08-26T16:56:08.540 ,0,1,0.,24.0,0.,24.0,0.,24.0,0.,24.0
1989-08-26T16:56:32.540 ,0,0,0.,24.0,0.,24.0,0.,24.0,0.,24.0
1989-08-26T16:56:56.540 ,0,1,0.,24.0,0.,24.0,0.,24.0,0.,24.0
1989-08-26T16:57:20.540 ,0,0,0.,24.0,0.,24.0,0.,24.0,0.,24.0
1989-08-26T16:57:44.540 ,1,1,0.,24.0,0.,24.0,0.,24.0,0.,24.0
1989-08-26T16:58:08.540 ,1,0,0.,24.0,0.,24.0,0.,24.0,0.,24.0
1989-08-26T16:58:32.540 ,2,1,0.,24.0,0.,24.0,0.,24.0,0.,24.0
1989-08-26T16:58:56.540 ,2,0,0.,24.0,0.,24.0,0.,24.0,0.,24.0
1989-08-26T16:59:20.540 ,3,1,0.,24.0,0.,24.0,0.,24.0,0.,24.0
1989-08-26T16:59:44.540 ,3,0,0.,24.0,0.,24.0,0.,24.0,0.,24.0
1989-08-26T17:00:08.540 ,4,1,0.,24.0,0.,24.0,0.,24.0,0.,24.0
1989-08-26T17:00:32.540 ,4,0,0.,24.0,0.,24.0,0.,24.0,0.,24.0
1989-08-26T17:00:56.540 ,5,1,0.,24.0,0.,24.0,0.,24.0,0.,24.0
1989-08-26T17:01:20.540 ,5,0,0.,24.0,0.,24.0,0.,24.0,0.,24.0
1989-08-26T17:01:44.540 ,6,1,0.,24.0,0.,24.0,0.,24.0,0.,24.0
1989-08-26T17:02:08.540 ,6,0,0.,24.0,0.,24.0,0.,24.0,0.,24.0
1989-08-26T17:02:32.540 ,7,1,0.,24.0,0.,24.0,0.,24.0,0.,24.0
1989-08-26T17:02:56.540 ,7,0,0.,24.0,0.,24.0,0.,24.0,0.,24.0
1989-08-26T17:03:20.540 ,7,1,0.,24.0,0.,24.0,0.,24.0,0.,24.0
1989-08-26T17:03:44.540 ,7,0,0.,24.0,0.,24.0,0.,24.0,0.,24.0
1989-08-26T17:04:08.540 ,6,1,0.,24.0,0.,24.0,0.,24.0,0.,24.0
1989-08-26T17:04:32.540 ,6,0,0.,24.0,0.,24.0,0.,24.0,0.,24.0
1989-08-26T17:04:56.540 ,5,1,0.,24.0,0.,24.0,0.,24.0,0.,24.0
1989-08-26T17:05:20.540 ,5,0,0.,24.0,0.,24.0,0.,24.0,0.,24.0
1989-08-26T17:05:44.540 ,4,1,0.,24.0,0.,24.0,0.,24.0,0.,24.0
1989-08-26T17:06:08.540 ,4,0,0.,24.0,0.,24.0,0.,24.0,0.,24.0
1989-08-26T17:06:32.540 ,3,1,0.,24.0,0.,24.0,0.,24.0,0.,24.0
1989-08-26T17:06:56.540 ,3,0,0.,24.0,0.,24.0,0.,24.0,0.,24.0
1989-08-26T17:07:20.540 ,2,1,0.,24.0,0.,24.0,0.,24.0,0.,24.0
1989-08-26T17:07:44.540 ,2,0,0.,24.0,0.,24.0,0.,24.0,0.,24.0
1989-08-26T17:08:08.540 ,1,1,0.,24.0,0.,24.0,0.,24.0,0.,24.0
1989-08-26T17:08:32.540 ,1,0,0.,24.0,0.,24.0,0.,24.0,0.,24.0
1989-08-26T17:08:56.540 ,0,1,0.,24.0,0.,24.0,0.,24.0,0.,24.0
1989-08-26T17:09:20.540 ,0,0,0.,24.0,0.,24.0,0.,24.0,0.,24.0
1989-08-26T17:09:44.540 ,0,1,0.,24.0,0.,24.0,0.,24.0,0.,24.0
1989-08-26T17:10:08.540 ,0,0,0.,24.0,0.,24.0,0.,24.0,0.,24.0
1989-08-26T17:10:32.540 ,1,1,0.,24.0,0.,24.0,0.,24.0,0.,24.0
1989-08-26T17:10:56.540 ,1,0,0.,24.0,0.,24.0,0.,24.0,0.,24.0
1989-08-26T17:11:20.540 ,2,1,0.,24.0,0.,24.0,0.,24.0,0.,24.0
1989-08-26T17:11:44.540 ,2,0,0.,24.0,0.,24.0,0.,24.0,0.,24.0
1989-08-26T17:12:08.540 ,3,1,0.,24.0,0.,24.0,0.,24.0,0.,24.0
1989-08-26T17:12:32.540 ,3,0,0.,24.0,0.,24.0,0.,24.0,0.,24.0
1989-08-26T17:12:56.540 ,4,1,0.,24.0,0.,24.0,0.,24.0,0.,24.0
1989-08-26T17:13:20.540 ,4,0,0.,24.0,0.,24.0,0.,24.0,0.,24.0
1989-08-26T17:13:44.540 ,5,1,0.,24.0,0.,24.0,0.,24.0,0.,24.0
1989-08-26T17:14:08.540 ,5,0,0.,24.0,0.,24.0,0.,24.0,0.,24.0
1989-08-26T17:14:32.540 ,6,1,0.,24.0,0.,24.0,0.,24.0,0.,24.0
1989-08-26T17:14:56.540 ,6,0,0.,24.0,0.,24.0,0.,24.0,0.,24.0
1989-08-26T17:15:20.540 ,7,1,0.,24.0,0.,24.0,0.,24.0,0.,24.0
1989-08-26T17:15:44.540 ,7,0,0.,24.0,0.,24.0,0.,24.0,0.,24.0
1989-08-26T17:16:08.540 ,7,1,0.,24.0,0.,24.0,0.,24.0,0.,24.0
1989-08-26T17:16:32.540 ,7,0,0.,24.0,0.,24.0,0.,24.0,0.,24.0
1989-08-26T17:16:56.540 ,6,1,0.,24.0,0.,24.0,0.,24.0,0.,24.0
1989-08-26T17:17:20.540 ,6,0,0.,24.0,0.,24.0,0.,24.0,0.,24.0
1989-08-26T17:17:44.540 ,5,1,0.,24.0,0.,24.0,0.,24.0,0.,24.0
1989-08-26T17:18:08.540 ,5,0,0.,24.0,0.,24.0,0.,24.0,0.,24.0
1989-08-26T17:18:32.540 ,4,1,0.,24.0,0.,24.0,0.,24.0,0.,24.0
1989-08-26T17:18:56.540 ,4,0,0.,24.0,0.,24.0,0.,24.0,0.,24.0
1989-08-26T17:19:20.540 ,3,1,0.,24.0,0.,24.0,0.,24.0,0.,24.0
1989-08-26T17:19:44.540 ,3,0,0.,24.0,0.,24.0,0.,24.0,0.,24.0
1989-08-26T17:20:08.540 ,2,1,0.,24.0,0.,24.0,0.,24.0,0.,24.0
1989-08-26T17:20:32.540 ,2,0,0.,24.0,0.,24.0,0.,24.0,0.,24.0
1989-08-26T17:20:56.540 ,1,1,0.,24.0,0.,24.0,0.,24.0,0.,24.0
1989-08-26T17:21:20.540 ,1,0,0.,24.0,0.,24.0,0.,24.0,0.,24.0
1989-08-26T17:21:44.540 ,0,1,0.,24.0,0.,24.0,0.,24.0,0.,24.0
1989-08-26T17:22:08.540 ,0,0,0.,24.0,0.,24.0,0.,24.0,0.,24.0
1989-08-26T17:22:32.540 ,0,1,0.,24.0,0.,24.0,0.,24.0,0.,24.0
1989-08-26T17:22:56.540 ,0,0,0.,24.0,0.,24.0,0.,24.0,0.,24.0
1989-08-26T17:23:20.540 ,1,1,0.,24.0,0.,24.0,0.,24.0,0.,24.0
1989-08-26T17:23:44.540 ,1,0,0.,24.0,0.,24.0,0.,24.0,0.,24.0
1989-08-26T17:24:08.540 ,2,1,0.,24.0,0.,24.0,0.,24.0,0.,24.0
1989-08-26T17:24:32.540 ,2,0,0.,24.0,0.,24.0,0.,24.0,0.,24.0
1989-08-26T17:24:56.540 ,3,1,0.,24.0,0.,24.0,0.,24.0,0.,24.0
1989-08-26T17:25:20.540 ,3,0,0.,24.0,0.,24.0,0.,24.0,0.,24.0
1989-08-26T17:25:44.540 ,4,1,0.,24.0,0.,24.0,0.,24.0,0.,24.0
1989-08-26T17:26:08.540 ,4,0,0.,24.0,0.,24.0,0.,24.0,0.,24.0
1989-08-26T17:26:32.540 ,5,1,0.,24.0,0.,24.0,0.,24.0,0.,24.0
1989-08-26T17:26:56.540 ,5,0,0.,24.0,0.,24.0,0.,24.0,0.,24.0
1989-08-26T17:27:20.540 ,6,1,0.,24.0,0.,24.0,0.,24.0,0.,24.0
1989-08-26T17:27:44.540 ,6,0,0.,24.0,0.,24.0,0.,24.0,0.,24.0
1989-08-26T17:28:08.540 ,7,1,0.,24.0,0.,24.0,0.,24.0,0.,24.0
1989-08-26T17:28:32.540 ,7,0,0.,24.0,0.,24.0,0.,24.0,0.,24.0
1989-08-26T17:28:56.540 ,7,1,0.,24.0,0.,24.0,0.,24.0,0.,24.0
1989-08-26T17:29:20.540 ,7,0,0.,24.0,0.,24.0,0.,24.0,0.,24.0
1989-08-26T17:29:44.540 ,6,1,0.,24.0,0.,24.0,0.,24.0,0.,24.0
1989-08-26T17:30:08.540 ,6,0,0.,24.0,0.,24.0,0.,24.0,0.,24.0
1989-08-26T17:30:32.540 ,5,1,0.,24.0,0.,24.0,0.,24.0,0.,24.0
1989-08-26T17:30:56.540 ,5,0,0.,24.0,0.,24.0,0.,24.0,0.,24.0
1989-08-26T17:31:20.540 ,4,1,0.,24.0,0.,24.0,0.,24.0,0.,24.0
1989-08-26T17:31:44.540 ,4,0,0.,24.0,0.,24.0,0.,24.0,0.,24.0
1989-08-26T17:32:08.540 ,3,1,0.,24.0,0.,24.0,0.,24.0,0.,24.0
1989-08-26T17:32:32.540 ,3,0,0.,24.0,0.,24.0,0.,24.0,0.,24.0
1989-08-26T17:32:56.540 ,2,1,0.,24.0,0.,24.0,0.,24.0,0.,24.0
1989-08-26T17:33:20.540 ,2,0,0.,24.0,0.,24.0,0.,24.0,0.,24.0
1989-08-26T17:33:44.540 ,1,1,0.,24.0,0.,24.0,0.,24.0,0.,24.0
1989-08-26T17:34:08.540 ,1,0,0.,24.0,0.,24.0,0.,24.0,0.,24.0
1989-08-26T17:34:32.540 ,0,1,0.,24.0,0.,24.0,0.,24.0,0.,24.0